Flag for U.S.A. Weather past 2 weeks in Fort Lauderdale, Florida, U.S.A.

74 °F

Passing clouds.

Feels Like: 77 °F
Forecast: 72 / 78 °F
Wind: 21 mph from East

Location: Fort Lauderdale / Hollywood International Airport

Current Time: Nov 25, 2015 at 1:33:08 AM

Latest Report: Nov 25, 2015 at 12:53 AM

Visibility: 10 mi

Pressure: 30.13 "Hg

Humidity: 57%

Dew point: 58 °F

Location of Fort LauderdaleLocation

Historic Weather in Fort Lauderdale — Graph


Fort Lauderdale temperature yesterday

Maximum temperature yesterday: 76 °F (at 11:53 AM)
Minimum temperature yesterday: 62 °F (at 2:53 AM)
Average temperature yesterday: 72 °F

Past Weeks' High & Low Weather Summary

High86 °F (Nov 10, 11:53 AM)100% (Nov 10, 5:53 AM)30.18 "Hg (Nov 10, 5:53 AM)
Low62 °F (Nov 24, 2:53 AM)48% (Nov 24, 11:53 AM)29.78 "Hg (Nov 22, 2:53 PM)
Average78 °F80%30.01 "Hg
* Reported Nov 9 11:53 PM — Nov 24 11:53 PM, Fort Lauderdale, Weather by CustomWeather, © 2015

Note: Actual official high and low records may vary slightly from our data, if they occured in-between our weather recording intervals... More about our weather records


Fort Lauderdale weather history for previous 24 hours

Time TempWeatherWind HumidityBarometerVisibility
11:53 PM
Tue, Nov 24
74 °FPassing clouds.18 mph52%30.14 "Hg10 mi
10:53 PM75 °FOvercast.20 mph48%30.16 "Hg10 mi
9:53 PM74 °FPassing clouds.18 mph52%30.15 "Hg10 mi
8:53 PM73 °FPassing clouds.15 mph62%30.16 "Hg10 mi
7:53 PM73 °FPartly cloudy.18 mph62%30.16 "Hg10 mi
6:53 PM73 °FMostly cloudy.16 mph59%30.14 "Hg10 mi
5:53 PM73 °FPartly cloudy.16 mph57%30.12 "Hg10 mi
4:53 PM73 °FBroken clouds.16 mph55%30.12 "Hg10 mi
3:53 PM73 °FCloudy.15 mph57%30.11 "Hg10 mi
2:53 PM75 °FPartly sunny.20 mph55%30.12 "Hg10 mi
1:53 PM74 °FPartly sunny.18 mph56%30.11 "Hg10 mi
12:53 PM75 °FBroken clouds.15 mph50%30.13 "Hg10 mi
11:53 AM76 °FBroken clouds.15 mph48%30.16 "Hg10 mi
10:53 AM75 °FPartly sunny.16 mph54%30.17 "Hg10 mi
9:53 AM75 °FScattered clouds.16 mph52%30.17 "Hg10 mi
8:53 AM75 °FScattered clouds.18 mph54%30.16 "Hg10 mi
7:53 AM73 °FPartly sunny.10 mph59%30.14 "Hg10 mi
6:53 AM72 °FPartly sunny.9 mph59%30.12 "Hg10 mi
5:53 AM71 °FPassing clouds.9 mph55%30.11 "Hg10 mi
4:53 AM71 °FPassing clouds.15 mph57%30.10 "Hg10 mi
3:53 AM69 °FPassing clouds.9 mph61%30.10 "Hg10 mi
2:53 AM62 °FPassing clouds.7 mph86%30.10 "Hg10 mi
1:53 AM63 °FPassing clouds.7 mph84%30.11 "Hg10 mi
Weather by CustomWeather, © 2015

See weather overviewHow to use our weather pages